Time,TemperatureF,DewpointF,PressureIn,WindDirection,WindDirectionDegrees,WindSpeedMPH,WindSpeedGustMPH,Humidity,HourlyPrecipIn,Conditions,Clouds,dailyrainin,SoftwareType,DateUTC
2013-06-28 00:43:00,67.0,64.0,-100.00,SE,140,0.0,2.0,90,0.00,,,-99.99,,2013-06-28 04:43:00,
2013-06-28 01:11:00,67.0,65.0,-100.00,East,90,0.0,1.0,91,0.00,,,-99.99,,2013-06-28 05:11:00,
2013-06-28 01:22:00,67.0,64.0,-100.00,East,90,0.0,1.0,90,0.00,,,-99.99,,2013-06-28 05:22:00,
2013-06-28 01:43:00,67.0,64.0,-100.00,South,175,0.0,0.0,90,0.00,,,-99.99,,2013-06-28 05:43:00,
2013-06-28 01:53:00,66.0,64.0,-100.00,SE,140,1.0,1.0,90,0.00,,,-99.99,,2013-06-28 05:53:00,
2013-06-28 02:02:00,66.0,64.0,-100.00,SW,220,0.0,1.0,91,0.00,,,-99.99,,2013-06-28 06:02:00,
2013-06-28 02:12:00,67.0,64.0,-100.00,SW,225,1.0,3.0,91,0.00,,,-99.99,,2013-06-28 06:12:00,
2013-06-28 02:33:00,67.0,64.0,-100.00,South,190,0.0,2.0,90,0.00,,,-99.99,,2013-06-28 06:33:00,
2013-06-28 02:52:00,67.0,65.0,-100.00,SW,230,1.0,3.0,91,0.00,,,-99.99,,2013-06-28 06:52:00,
2013-06-28 03:01:00,67.0,65.0,-100.00,SSE,160,0.0,3.0,91,0.00,,,-99.99,,2013-06-28 07:01:00,
2013-06-28 03:11:00,67.0,65.0,-100.00,SW,225,1.0,2.0,91,0.00,,,-99.99,,2013-06-28 07:11:00,
2013-06-28 03:22:00,68.0,65.0,-100.00,WSW,245,2.0,4.0,92,0.00,,,-99.99,,2013-06-28 07:22:00,
2013-06-28 03:33:00,68.0,66.0,-100.00,SW,220,2.0,4.0,92,0.00,,,-99.99,,2013-06-28 07:33:00,
2013-06-28 03:43:00,68.0,66.0,-100.00,SSW,195,0.0,1.0,92,0.00,,,-99.99,,2013-06-28 07:43:00,
2013-06-28 03:52:00,68.0,66.0,-100.00,South,175,0.0,1.0,92,0.00,,,-99.99,,2013-06-28 07:52:00,
2013-06-28 04:02:00,68.0,66.0,-100.00,SW,225,0.0,1.0,92,0.00,,,-99.99,,2013-06-28 08:02:00,
2013-06-28 04:11:00,68.0,65.0,-100.00,SE,125,1.0,2.0,92,0.00,,,-99.99,,2013-06-28 08:11:00,
2013-06-28 04:22:00,68.0,66.0,-100.00,WSW,240,2.0,4.0,92,0.00,,,-99.99,,2013-06-28 08:22:00,
2013-06-28 04:43:00,68.0,66.0,-100.00,SW,220,2.0,5.0,93,0.00,,,-99.99,,2013-06-28 08:43:00,
2013-06-28 04:52:00,68.0,66.0,-100.00,SW,225,2.0,6.0,93,0.00,,,-99.99,,2013-06-28 08:52:00,
2013-06-28 06:02:00,67.0,65.0,-100.00,WSW,240,4.0,9.0,92,0.00,,,-99.99,,2013-06-28 10:02:00,
2013-06-28 06:12:00,67.0,64.0,-100.00,WSW,255,4.0,7.0,92,0.00,,,-99.99,,2013-06-28 10:12:00,
2013-06-28 06:22:00,66.0,64.0,-100.00,WSW,250,4.0,7.0,92,0.00,,,-99.99,,2013-06-28 10:22:00,
2013-06-28 06:33:00,66.0,64.0,-100.00,WSW,250,3.0,6.0,92,0.00,,,-99.99,,2013-06-28 10:33:00,
2013-06-28 06:42:00,66.0,64.0,-100.00,WSW,240,3.0,7.0,92,0.00,,,-99.99,,2013-06-28 10:42:00,
2013-06-28 07:02:00,66.0,64.0,-100.00,WSW,240,3.0,6.0,92,0.00,,,-99.99,,2013-06-28 11:02:00,
2013-06-28 07:11:00,66.0,64.0,-100.00,WSW,255,4.0,6.0,92,0.00,,,-99.99,,2013-06-28 11:11:00,
2013-06-28 07:22:00,66.0,64.0,-100.00,West,265,2.0,6.0,92,0.00,,,-99.99,,2013-06-28 11:22:00,
2013-06-28 07:34:00,66.0,64.0,-100.00,WSW,240,3.0,5.0,92,0.00,,,-99.99,,2013-06-28 11:34:00,
2013-06-28 07:43:00,66.0,64.0,-100.00,WSW,245,3.0,5.0,91,0.00,,,-99.99,,2013-06-28 11:43:00,
2013-06-28 08:02:00,66.0,64.0,-100.00,SW,230,4.0,6.0,91,0.00,,,-99.99,,2013-06-28 12:02:00,
2013-06-28 08:43:00,68.0,64.0,-100.00,WSW,255,6.0,8.0,89,0.00,,,-99.99,,2013-06-28 12:43:00,
2013-06-28 09:01:00,68.0,64.0,-100.00,WSW,245,3.0,7.0,89,0.00,,,-99.99,,2013-06-28 13:01:00,
2013-06-28 09:11:00,68.0,64.0,-100.00,WSW,250,5.0,7.0,88,0.00,,,-99.99,,2013-06-28 13:11:00,
2013-06-28 09:23:00,68.0,65.0,-100.00,SW,230,6.0,9.0,88,0.00,,,-99.99,,2013-06-28 13:23:00,
2013-06-28 09:33:00,69.0,65.0,-100.00,WSW,255,4.0,7.0,88,0.00,,,-99.99,,2013-06-28 13:33:00,
2013-06-28 09:43:00,69.0,65.0,-100.00,WSW,250,4.0,9.0,87,0.00,,,-99.99,,2013-06-28 13:43:00,
2013-06-28 10:44:00,71.0,66.0,-100.00,WSW,250,4.0,7.0,84,0.00,,,-99.99,,2013-06-28 14:44:00,
2013-06-28 12:44:00,76.0,66.0,-100.00,WNW,285,8.0,15.0,71,0.00,,,-99.99,,2013-06-28 16:44:00,
2013-06-28 13:02:00,76.0,65.0,-100.00,NW,305,10.0,16.0,66,0.00,,,-99.99,,2013-06-28 17:02:00,
2013-06-28 13:11:00,76.0,65.0,-100.00,West,275,6.0,16.0,68,0.00,,,-99.99,,2013-06-28 17:11:00,
2013-06-28 13:22:00,76.0,65.0,-100.00,NW,305,7.0,14.0,69,0.00,,,-99.99,,2013-06-28 17:22:00,
2013-06-28 13:33:00,76.0,63.0,-100.00,WNW,295,8.0,14.0,63,0.00,,,-99.99,,2013-06-28 17:33:00,
2013-06-28 13:44:00,76.0,64.0,-100.00,WNW,285,7.0,11.0,64,0.00,,,-99.99,,2013-06-28 17:44:00,
2013-06-28 14:11:00,78.0,65.0,-100.00,WNW,290,9.0,16.0,64,0.00,,,-99.99,,2013-06-28 18:11:00,
2013-06-28 14:22:00,78.0,62.0,-100.00,WSW,250,9.0,16.0,56,0.00,,,-99.99,,2013-06-28 18:22:00,
2013-06-28 14:33:00,78.0,64.0,-100.00,WNW,300,4.0,12.0,61,0.00,,,-99.99,,2013-06-28 18:33:00,
2013-06-28 14:43:00,77.0,64.0,-100.00,NW,305,4.0,11.0,64,0.00,,,-99.99,,2013-06-28 18:43:00,
2013-06-28 15:43:00,79.0,63.0,-100.00,NW,305,7.0,14.0,58,0.00,,,-99.99,,2013-06-28 19:43:00,
2013-06-28 16:02:00,79.0,63.0,-100.00,WNW,295,7.0,12.0,59,0.00,,,-99.99,,2013-06-28 20:02:00,
2013-06-28 17:43:00,64.0,62.0,-100.00,West,275,2.0,4.0,93,0.00,,,-99.99,,2013-06-28 21:43:00,
2013-06-28 18:01:00,65.0,63.0,-100.00,WSW,240,4.0,6.0,93,0.00,,,-99.99,,2013-06-28 22:01:00,
2013-06-28 19:02:00,70.0,63.0,-100.00,WSW,240,6.0,8.0,77,0.00,,,-99.99,,2013-06-28 23:02:00,
2013-06-28 19:34:00,69.0,64.0,-100.00,West,270,4.0,6.0,83,0.00,,,-99.99,,2013-06-28 23:34:00,
2013-06-28 19:43:00,70.0,64.0,-100.00,West,265,3.0,6.0,81,0.00,,,-99.99,,2013-06-28 23:43:00,
2013-06-28 19:53:00,70.0,64.0,-100.00,West,265,2.0,4.0,82,0.00,,,-99.99,,2013-06-28 23:53:00,
2013-06-28 20:02:00,69.0,64.0,-100.00,West,260,2.0,6.0,84,0.00,,,-99.99,,2013-06-29 00:02:00,
2013-06-28 20:11:00,68.0,64.0,-100.00,West,270,2.0,4.0,86,0.00,,,-99.99,,2013-06-29 00:11:00,
2013-06-28 20:23:00,68.0,64.0,-100.00,WSW,250,3.0,5.0,85,0.00,,,-99.99,,2013-06-29 00:23:00,
2013-06-28 20:33:00,68.0,63.0,-100.00,WSW,250,3.0,6.0,84,0.00,,,-99.99,,2013-06-29 00:33:00,
2013-06-28 20:42:00,68.0,63.0,-100.00,WNW,285,2.0,6.0,85,0.00,,,-99.99,,2013-06-29 00:42:00,
2013-06-28 20:52:00,68.0,63.0,-100.00,West,265,2.0,5.0,86,0.00,,,-99.99,,2013-06-29 00:52:00,
2013-06-28 21:01:00,67.0,63.0,-100.00,West,265,2.0,4.0,87,0.00,,,-99.99,,2013-06-29 01:01:00,
2013-06-28 21:11:00,67.0,63.0,-100.00,WSW,245,4.0,6.0,86,0.00,,,-99.99,,2013-06-29 01:11:00,
2013-06-28 21:22:00,67.0,62.0,-100.00,WSW,255,4.0,6.0,85,0.00,,,-99.99,,2013-06-29 01:22:00,
2013-06-28 21:32:00,67.0,63.0,-100.00,West,270,2.0,6.0,85,0.00,,,-99.99,,2013-06-29 01:32:00,
2013-06-28 21:42:00,67.0,63.0,-100.00,West,275,1.0,4.0,86,0.00,,,-99.99,,2013-06-29 01:42:00,
2013-06-28 21:51:00,67.0,63.0,-100.00,West,265,1.0,2.0,87,0.00,,,-99.99,,2013-06-29 01:51:00,
2013-06-28 22:01:00,66.0,63.0,-100.00,West,280,2.0,3.0,88,0.00,,,-99.99,,2013-06-29 02:01:00,
2013-06-28 22:11:00,66.0,62.0,-100.00,WSW,240,2.0,4.0,88,0.00,,,-99.99,,2013-06-29 02:11:00,
2013-06-28 22:21:00,66.0,62.0,-100.00,West,270,2.0,5.0,88,0.00,,,-99.99,,2013-06-29 02:21:00,
2013-06-28 22:31:00,65.0,62.0,-100.00,WSW,250,2.0,4.0,88,0.00,,,-99.99,,2013-06-29 02:31:00,
2013-06-28 22:41:00,65.0,61.0,-100.00,West,260,3.0,6.0,88,0.00,,,-99.99,,2013-06-29 02:41:00,
2013-06-28 22:51:00,65.0,61.0,-100.00,WSW,250,1.0,4.0,88,0.00,,,-99.99,,2013-06-29 02:51:00,
2013-06-28 23:01:00,64.0,60.0,-100.00,WSW,255,2.0,3.0,87,0.00,,,-99.99,,2013-06-29 03:01:00,
2013-06-28 23:11:00,64.0,60.0,-100.00,SSW,205,1.0,2.0,87,0.00,,,-99.99,,2013-06-29 03:11:00,
2013-06-28 23:21:00,63.0,60.0,-100.00,South,185,2.0,3.0,89,0.00,,,-99.99,,2013-06-29 03:21:00,
2013-06-28 23:32:00,64.0,60.0,-100.00,SSW,210,2.0,6.0,86,0.00,,,-99.99,,2013-06-29 03:32:00,
2013-06-28 23:41:00,63.0,60.0,-100.00,SW,215,3.0,6.0,87,0.00,,,-99.99,,2013-06-29 03:41:00,
2013-06-28 23:51:00,63.0,59.0,-100.00,West,260,3.0,6.0,87,0.00,,,-99.99,,2013-06-29 03:51:00,